Time,TemperatureF,DewpointF,PressureIn,WindDirection,WindDirectionDegrees,WindSpeedMPH,WindSpeedGustMPH,Humidity,HourlyPrecipIn,Conditions,Clouds,dailyrainin,SoftwareType,DateUTC
2013-01-13 00:01:00,64.5,60.5,29.89,SSW,212,2.0,2.0,87,0.00,,,0.00,Wunderground v.1.15,2013-01-13 06:01:00,
2013-01-13 00:05:00,64.4,60.4,29.89,SSE,165,2.0,3.0,87,0.00,,,0.00,Wunderground v.1.15,2013-01-13 06:05:00,
2013-01-13 00:10:00,64.4,60.8,29.89,SSE,166,2.0,2.0,88,0.00,,,0.00,Wunderground v.1.15,2013-01-13 06:10:00,
2013-01-13 00:15:00,64.4,60.8,29.89,SE,128,2.0,2.0,88,0.00,,,0.00,Wunderground v.1.15,2013-01-13 06:15:00,
2013-01-13 00:20:00,64.4,60.8,29.89,SSE,163,2.0,2.0,88,0.00,,,0.00,Wunderground v.1.15,2013-01-13 06:20:00,
2013-01-13 00:30:00,64.2,60.9,29.89,SSE,160,1.0,3.0,89,0.00,,,0.00,Wunderground v.1.15,2013-01-13 06:30:00,
2013-01-13 00:40:00,64.1,60.8,29.89,SSE,164,1.0,1.0,89,0.00,,,0.00,Wunderground v.1.15,2013-01-13 06:40:00,
2013-01-13 00:45:00,64.0,60.7,29.88,West,266,1.0,1.0,89,0.00,,,0.00,Wunderground v.1.15,2013-01-13 06:45:00,
2013-01-13 00:50:00,63.9,60.6,29.88,South,176,1.0,1.0,89,0.00,,,0.00,Wunderground v.1.15,2013-01-13 06:50:00,
2013-01-13 00:55:00,63.9,60.9,29.88,South,171,2.0,3.0,90,0.00,,,0.00,Wunderground v.1.15,2013-01-13 06:55:00,
2013-01-13 01:01:00,63.9,60.9,29.88,South,170,2.0,2.0,90,0.00,,,0.00,Wunderground v.1.15,2013-01-13 07:01:00,
2013-01-13 01:05:00,63.8,60.8,29.88,SE,146,1.0,2.0,90,0.00,,,0.00,Wunderground v.1.15,2013-01-13 07:05:00,
2013-01-13 01:10:00,63.8,60.8,29.88,SSE,152,1.0,1.0,90,0.00,,,0.00,Wunderground v.1.15,2013-01-13 07:10:00,
2013-01-13 01:15:00,63.8,60.8,29.88,South,186,1.0,1.0,90,0.00,,,0.00,Wunderground v.1.15,2013-01-13 07:15:00,
2013-01-13 01:20:00,63.7,60.7,29.88,SSE,147,1.0,1.0,90,0.00,,,0.00,Wunderground v.1.15,2013-01-13 07:20:00,
2013-01-13 01:25:00,63.8,61.1,29.88,SSE,161,1.0,2.0,91,0.00,,,0.00,Wunderground v.1.15,2013-01-13 07:25:00,
2013-01-13 01:30:00,63.9,61.2,29.88,SW,220,2.0,2.0,91,0.00,,,0.00,Wunderground v.1.15,2013-01-13 07:30:00,
2013-01-13 01:40:00,63.9,61.2,29.88,South,173,1.0,1.0,91,0.00,,,0.00,Wunderground v.1.15,2013-01-13 07:40:00,
2013-01-13 01:45:00,64.1,61.4,29.88,SW,227,1.0,2.0,91,0.00,,,0.00,Wunderground v.1.15,2013-01-13 07:45:00,
2013-01-13 01:50:00,64.1,61.4,29.88,NW,319,2.0,2.0,91,0.00,,,0.00,Wunderground v.1.15,2013-01-13 07:50:00,
2013-01-13 01:55:00,64.2,61.5,29.88,SE,143,2.0,2.0,91,0.00,,,0.00,Wunderground v.1.15,2013-01-13 07:55:00,
2013-01-13 02:01:00,64.3,61.6,29.89,South,170,1.0,1.0,91,0.00,,,0.00,Wunderground v.1.15,2013-01-13 08:01:00,
2013-01-13 02:05:00,64.3,61.6,29.89,SW,223,1.0,2.0,91,0.00,,,0.00,Wunderground v.1.15,2013-01-13 08:05:00,
2013-01-13 02:10:00,64.3,61.6,29.89,WSW,247,1.0,1.0,91,0.00,,,0.00,Wunderground v.1.15,2013-01-13 08:10:00,
2013-01-13 02:15:00,64.4,61.7,29.88,South,186,1.0,1.0,91,0.00,,,0.00,Wunderground v.1.15,2013-01-13 08:15:00,
2013-01-13 02:20:00,64.4,61.7,29.88,SSE,160,1.0,2.0,91,0.00,,,0.00,Wunderground v.1.15,2013-01-13 08:20:00,
2013-01-13 02:25:00,64.5,61.8,29.88,SSE,163,1.0,5.0,91,0.00,,,0.00,Wunderground v.1.15,2013-01-13 08:25:00,
2013-01-13 02:30:00,64.6,61.9,29.88,WSW,242,2.0,3.0,91,0.00,,,0.00,Wunderground v.1.15,2013-01-13 08:30:00,
2013-01-13 02:35:00,64.6,61.9,29.88,West,263,2.0,3.0,91,0.00,,,0.00,Wunderground v.1.15,2013-01-13 08:35:00,
2013-01-13 02:45:00,64.8,61.8,29.88,SSE,155,2.0,2.0,90,0.00,,,0.00,Wunderground v.1.15,2013-01-13 08:45:00,
2013-01-13 02:50:00,64.8,62.1,29.88,SE,139,1.0,1.0,91,0.00,,,0.00,Wunderground v.1.15,2013-01-13 08:50:00,
2013-01-13 03:00:00,64.9,62.2,29.87,SW,219,2.0,2.0,91,0.00,,,0.00,Wunderground v.1.15,2013-01-13 09:00:00,
2013-01-13 03:05:00,65.0,62.3,29.87,South,186,2.0,3.0,91,0.00,,,0.00,Wunderground v.1.15,2013-01-13 09:05:00,
2013-01-13 03:10:00,65.0,62.0,29.87,South,181,2.0,2.0,90,0.00,,,0.00,Wunderground v.1.15,2013-01-13 09:10:00,
2013-01-13 03:15:00,65.1,62.1,29.87,South,173,1.0,2.0,90,0.00,,,0.00,Wunderground v.1.15,2013-01-13 09:15:00,
2013-01-13 03:20:00,65.2,62.2,29.87,South,178,1.0,1.0,90,0.00,,,0.00,Wunderground v.1.15,2013-01-13 09:20:00,
2013-01-13 03:25:00,65.2,62.2,29.87,South,171,1.0,1.0,90,0.00,,,0.00,Wunderground v.1.15,2013-01-13 09:25:00,
2013-01-13 03:30:00,65.3,62.3,29.86,ESE,114,2.0,2.0,90,0.00,,,0.00,Wunderground v.1.15,2013-01-13 09:30:00,
2013-01-13 03:35:00,65.3,62.3,29.86,South,183,1.0,2.0,90,0.00,,,0.00,Wunderground v.1.15,2013-01-13 09:35:00,
2013-01-13 03:40:00,65.4,62.4,29.86,WNW,296,2.0,3.0,90,0.00,,,0.00,Wunderground v.1.15,2013-01-13 09:40:00,
2013-01-13 03:45:00,65.4,62.7,29.85,NNW,337,1.0,3.0,91,0.00,,,0.00,Wunderground v.1.15,2013-01-13 09:45:00,
2013-01-13 03:50:00,65.4,62.7,29.85,SSW,192,2.0,3.0,91,0.00,,,0.00,Wunderground v.1.15,2013-01-13 09:50:00,
2013-01-13 03:55:00,65.5,62.8,29.85,SSE,147,2.0,3.0,91,0.00,,,0.00,Wunderground v.1.15,2013-01-13 09:55:00,
2013-01-13 04:01:00,65.6,62.6,29.86,South,174,2.0,2.0,90,0.00,,,0.00,Wunderground v.1.15,2013-01-13 10:01:00,
2013-01-13 04:05:00,65.7,62.7,29.86,SE,131,2.0,2.0,90,0.00,,,0.00,Wunderground v.1.15,2013-01-13 10:05:00,
2013-01-13 04:15:00,65.8,62.8,29.86,SE,131,2.0,3.0,90,0.00,,,0.00,Wunderground v.1.15,2013-01-13 10:15:00,
2013-01-13 04:20:00,65.8,62.8,29.86,SSE,161,2.0,5.0,90,0.00,,,0.00,Wunderground v.1.15,2013-01-13 10:20:00,
2013-01-13 04:30:00,65.8,62.8,29.86,South,190,2.0,2.0,90,0.00,,,0.00,Wunderground v.1.15,2013-01-13 10:30:00,
2013-01-13 04:40:00,65.8,62.8,29.86,SSE,161,3.0,3.0,90,0.00,,,0.00,Wunderground v.1.15,2013-01-13 10:40:00,
2013-01-13 04:45:00,65.8,62.8,29.86,South,180,3.0,6.0,90,0.00,,,0.00,Wunderground v.1.15,2013-01-13 10:45:00,
2013-01-13 04:50:00,65.7,63.0,29.86,WNW,300,3.0,3.0,91,0.00,,,0.00,Wunderground v.1.15,2013-01-13 10:50:00,
2013-01-13 04:55:00,65.7,63.0,29.86,SSE,161,2.0,3.0,91,0.00,,,0.00,Wunderground v.1.15,2013-01-13 10:55:00,
2013-01-13 05:01:00,65.7,63.0,29.87,SE,131,2.0,2.0,91,0.00,,,0.00,Wunderground v.1.15,2013-01-13 11:01:00,
2013-01-13 05:10:00,65.6,62.9,29.87,South,180,2.0,2.0,91,0.00,,,0.00,Wunderground v.1.15,2013-01-13 11:10:00,
2013-01-13 05:15:00,65.6,62.9,29.88,West,275,1.0,2.0,91,0.00,,,0.00,Wunderground v.1.15,2013-01-13 11:15:00,
2013-01-13 05:20:00,65.5,63.1,29.88,South,174,1.0,1.0,92,0.00,,,0.00,Wunderground v.1.15,2013-01-13 11:20:00,
2013-01-13 05:25:00,65.5,63.1,29.88,South,170,1.0,1.0,92,0.00,,,0.00,Wunderground v.1.15,2013-01-13 11:25:00,
2013-01-13 05:35:00,65.4,63.0,29.88,SSE,155,1.0,1.0,92,0.00,,,0.00,Wunderground v.1.15,2013-01-13 11:35:00,
2013-01-13 05:45:00,65.6,62.9,29.90,SW,234,1.0,1.0,91,0.00,,,0.00,Wunderground v.1.15,2013-01-13 11:45:00,
2013-01-13 05:50:00,65.6,62.9,29.90,South,171,0.0,3.0,91,0.00,,,0.00,Wunderground v.1.15,2013-01-13 11:50:00,
2013-01-13 05:55:00,65.7,63.0,29.90,NNW,342,0.0,3.0,91,0.00,,,0.00,Wunderground v.1.15,2013-01-13 11:55:00,
2013-01-13 06:00:00,65.7,63.0,29.91,East,95,1.0,1.0,91,0.00,,,0.00,Wunderground v.1.15,2013-01-13 12:00:00,
2013-01-13 06:05:00,65.8,62.8,29.91,SSE,165,1.0,1.0,90,0.00,,,0.00,Wunderground v.1.15,2013-01-13 12:05:00,
2013-01-13 06:10:00,65.9,62.9,29.91,South,182,1.0,1.0,90,0.00,,,0.00,Wunderground v.1.15,2013-01-13 12:10:00,
2013-01-13 06:15:00,66.0,63.0,29.91,South,183,1.0,1.0,90,0.00,,,0.00,Wunderground v.1.15,2013-01-13 12:15:00,
2013-01-13 06:25:00,66.0,63.0,29.91,South,181,0.0,0.0,90,0.00,,,0.00,Wunderground v.1.15,2013-01-13 12:25:00,
2013-01-13 06:35:00,66.0,63.0,29.92,South,179,1.0,1.0,90,0.00,,,0.00,Wunderground v.1.15,2013-01-13 12:35:00,
2013-01-13 06:40:00,66.0,63.0,29.92,South,179,0.0,0.0,90,0.00,,,0.00,Wunderground v.1.15,2013-01-13 12:40:00,
2013-01-13 06:45:00,66.0,62.7,29.92,South,179,0.0,3.0,89,0.00,,,0.00,Wunderground v.1.15,2013-01-13 12:45:00,
2013-01-13 06:50:00,66.0,63.0,29.92,SW,220,1.0,1.0,90,0.00,,,0.00,Wunderground v.1.15,2013-01-13 12:50:00,
2013-01-13 06:55:00,66.0,63.0,29.92,SSW,207,1.0,1.0,90,0.00,,,0.00,Wunderground v.1.15,2013-01-13 12:55:00,
2013-01-13 07:01:00,66.0,62.7,29.93,South,183,0.0,0.0,89,0.00,,,0.00,Wunderground v.1.15,2013-01-13 13:01:00,
2013-01-13 07:05:00,66.0,63.0,29.93,SSE,159,0.0,2.0,90,0.00,,,0.00,Wunderground v.1.15,2013-01-13 13:05:00,
2013-01-13 07:10:00,66.0,63.0,29.93,SSE,166,1.0,1.0,90,0.00,,,0.00,Wunderground v.1.15,2013-01-13 13:10:00,
2013-01-13 07:15:00,66.0,63.0,29.93,SSE,166,1.0,1.0,90,0.00,,,0.01,Wunderground v.1.15,2013-01-13 13:15:00,
2013-01-13 07:20:00,66.0,63.3,29.93,SSE,166,0.0,0.0,91,0.00,,,0.01,Wunderground v.1.15,2013-01-13 13:20:00,
2013-01-13 07:30:00,65.7,63.0,29.93,South,184,1.0,1.0,91,0.00,,,0.01,Wunderground v.1.15,2013-01-13 13:30:00,
2013-01-13 07:35:00,65.6,63.2,29.93,South,178,0.0,1.0,92,0.00,,,0.01,Wunderground v.1.15,2013-01-13 13:35:00,
2013-01-13 07:40:00,65.6,63.2,29.93,South,178,0.0,0.0,92,0.00,,,0.01,Wunderground v.1.15,2013-01-13 13:40:00,
2013-01-13 07:45:00,65.5,63.1,29.93,South,190,0.0,0.0,92,0.00,,,0.01,Wunderground v.1.15,2013-01-13 13:45:00,
2013-01-13 07:50:00,65.5,63.1,29.93,South,190,0.0,0.0,92,0.00,,,0.01,Wunderground v.1.15,2013-01-13 13:50:00,
2013-01-13 07:55:00,65.4,63.3,29.93,South,190,0.0,0.0,93,0.00,,,0.01,Wunderground v.1.15,2013-01-13 13:55:00,
2013-01-13 08:01:00,65.4,63.6,29.93,SSW,195,0.0,0.0,94,0.00,,,0.01,Wunderground v.1.15,2013-01-13 14:01:00,
2013-01-13 08:05:00,65.3,63.5,29.93,SSW,195,0.0,0.0,94,0.00,,,0.01,Wunderground v.1.15,2013-01-13 14:05:00,
2013-01-13 08:10:00,65.2,63.4,29.93,SSW,195,0.0,0.0,94,0.00,,,0.01,Wunderground v.1.15,2013-01-13 14:10:00,
2013-01-13 08:15:00,65.1,63.6,29.93,SSW,195,0.0,0.0,95,0.00,,,0.01,Wunderground v.1.15,2013-01-13 14:15:00,
2013-01-13 08:20:00,65.0,63.5,29.93,SSW,195,0.0,0.0,95,0.00,,,0.01,Wunderground v.1.15,2013-01-13 14:20:00,
2013-01-13 08:25:00,65.0,63.5,29.93,SSW,195,0.0,0.0,95,0.00,,,0.01,Wunderground v.1.15,2013-01-13 14:25:00,
2013-01-13 08:35:00,65.0,63.5,29.93,SSW,192,0.0,0.0,95,0.00,,,0.01,Wunderground v.1.15,2013-01-13 14:35:00,
2013-01-13 08:40:00,65.0,63.5,29.93,SSW,192,0.0,0.0,95,0.00,,,0.01,Wunderground v.1.15,2013-01-13 14:40:00,
2013-01-13 08:45:00,65.0,63.5,29.93,SSW,192,0.0,0.0,95,0.00,,,0.01,Wunderground v.1.15,2013-01-13 14:45:00,
2013-01-13 08:50:00,65.1,63.6,29.93,SSW,192,0.0,0.0,95,0.00,,,0.01,Wunderground v.1.15,2013-01-13 14:50:00,
2013-01-13 08:55:00,65.2,63.7,29.93,SSW,192,0.0,0.0,95,0.00,,,0.01,Wunderground v.1.15,2013-01-13 14:55:00,
2013-01-13 09:00:00,65.3,63.8,29.93,SSW,209,0.0,1.0,95,0.00,,,0.01,Wunderground v.1.15,2013-01-13 15:00:00,
2013-01-13 09:05:00,65.6,64.1,29.93,SSE,148,1.0,1.0,95,0.00,,,0.01,Wunderground v.1.15,2013-01-13 15:05:00,
2013-01-13 09:15:00,65.9,64.4,29.94,South,181,0.0,1.0,95,0.00,,,0.01,Wunderground v.1.15,2013-01-13 15:15:00,
2013-01-13 09:20:00,66.1,64.6,29.94,South,181,0.0,1.0,95,0.00,,,0.01,Wunderground v.1.15,2013-01-13 15:20:00,
2013-01-13 09:25:00,66.2,64.4,29.94,SW,226,0.0,1.0,94,0.00,,,0.01,Wunderground v.1.15,2013-01-13 15:25:00,
2013-01-13 09:30:00,66.3,64.5,29.94,South,188,0.0,2.0,94,0.00,,,0.01,Wunderground v.1.15,2013-01-13 15:30:00,
2013-01-13 09:35:00,66.5,64.7,29.94,SSE,165,0.0,2.0,94,0.00,,,0.01,Wunderground v.1.15,2013-01-13 15:35:00,
2013-01-13 09:45:00,66.7,64.9,29.94,ENE,78,1.0,1.0,94,0.00,,,0.01,Wunderground v.1.15,2013-01-13 15:45:00,
2013-01-13 09:50:00,66.8,65.0,29.94,East,89,1.0,1.0,94,0.00,,,0.01,Wunderground v.1.15,2013-01-13 15:50:00,
2013-01-13 09:55:00,67.0,64.9,29.94,SSE,163,1.0,1.0,93,0.00,,,0.01,Wunderground v.1.15,2013-01-13 15:55:00,
2013-01-13 10:01:00,67.3,65.2,29.94,SSE,163,1.0,1.0,93,0.00,,,0.01,Wunderground v.1.15,2013-01-13 16:01:00,
2013-01-13 10:05:00,67.4,65.0,29.94,South,171,1.0,1.0,92,0.00,,,0.01,Wunderground v.1.15,2013-01-13 16:05:00,
2013-01-13 10:10:00,67.6,65.2,29.94,South,187,1.0,1.0,92,0.00,,,0.01,Wunderground v.1.15,2013-01-13 16:10:00,
2013-01-13 10:20:00,67.9,65.2,29.94,SSE,161,1.0,1.0,91,0.00,,,0.01,Wunderground v.1.15,2013-01-13 16:20:00,
2013-01-13 10:25:00,67.9,65.2,29.94,SSE,161,1.0,1.0,91,0.00,,,0.01,Wunderground v.1.15,2013-01-13 16:25:00,
2013-01-13 10:30:00,67.9,65.2,29.93,SSE,162,0.0,0.0,91,0.00,,,0.01,Wunderground v.1.15,2013-01-13 16:30:00,
2013-01-13 10:40:00,68.1,65.4,29.93,SSE,163,0.0,0.0,91,0.00,,,0.01,Wunderground v.1.15,2013-01-13 16:40:00,
2013-01-13 10:45:00,68.1,65.1,29.92,SSE,159,0.0,1.0,90,0.00,,,0.01,Wunderground v.1.15,2013-01-13 16:45:00,
2013-01-13 10:55:00,68.0,65.3,29.92,South,186,1.0,2.0,91,0.00,,,0.01,Wunderground v.1.15,2013-01-13 16:55:00,
2013-01-13 11:01:00,67.9,65.2,29.91,South,177,1.0,1.0,91,0.00,,,0.01,Wunderground v.1.15,2013-01-13 17:01:00,
2013-01-13 11:05:00,68.1,65.4,29.91,South,186,1.0,1.0,91,0.00,,,0.01,Wunderground v.1.15,2013-01-13 17:05:00,
2013-01-13 11:10:00,68.3,65.6,29.91,SSE,152,1.0,2.0,91,0.00,,,0.01,Wunderground v.1.15,2013-01-13 17:10:00,
2013-01-13 11:15:00,68.6,65.5,29.91,ESE,122,1.0,2.0,90,0.00,,,0.01,Wunderground v.1.15,2013-01-13 17:15:00,
2013-01-13 11:20:00,69.0,65.3,29.91,SSE,157,1.0,1.0,88,0.00,,,0.01,Wunderground v.1.15,2013-01-13 17:20:00,
2013-01-13 11:25:00,69.2,65.5,29.91,SSE,154,1.0,1.0,88,0.00,,,0.01,Wunderground v.1.15,2013-01-13 17:25:00,
2013-01-13 11:30:00,69.4,65.4,29.90,SSW,200,1.0,2.0,87,0.00,,,0.01,Wunderground v.1.15,2013-01-13 17:30:00,
2013-01-13 11:40:00,69.8,65.4,29.90,South,175,1.0,3.0,86,0.00,,,0.01,Wunderground v.1.15,2013-01-13 17:40:00,
2013-01-13 11:50:00,70.1,65.4,29.90,SSE,166,1.0,1.0,85,0.00,,,0.01,Wunderground v.1.15,2013-01-13 17:50:00,
2013-01-13 11:55:00,70.2,65.5,29.90,South,173,1.0,3.0,85,0.00,,,0.01,Wunderground v.1.15,2013-01-13 17:55:00,
2013-01-13 12:01:00,70.3,64.9,29.89,SSE,161,2.0,2.0,83,0.00,,,0.01,Wunderground v.1.15,2013-01-13 18:01:00,
2013-01-13 12:05:00,70.2,65.1,29.89,WSW,256,2.0,2.0,84,0.00,,,0.01,Wunderground v.1.15,2013-01-13 18:05:00,
2013-01-13 12:10:00,70.2,65.1,29.89,South,172,1.0,1.0,84,0.00,,,0.01,Wunderground v.1.15,2013-01-13 18:10:00,
2013-01-13 12:15:00,70.2,65.1,29.89,SSW,202,1.0,2.0,84,0.00,,,0.01,Wunderground v.1.15,2013-01-13 18:15:00,
2013-01-13 12:20:00,70.3,64.9,29.89,SE,146,2.0,2.0,83,0.00,,,0.01,Wunderground v.1.15,2013-01-13 18:20:00,
2013-01-13 12:25:00,70.3,64.9,29.89,SSE,161,1.0,2.0,83,0.00,,,0.01,Wunderground v.1.15,2013-01-13 18:25:00,
2013-01-13 12:30:00,70.4,65.0,29.88,South,173,1.0,1.0,83,0.00,,,0.01,Wunderground v.1.15,2013-01-13 18:30:00,
2013-01-13 12:40:00,70.5,65.4,29.88,ESE,113,1.0,1.0,84,0.00,,,0.01,Wunderground v.1.15,2013-01-13 18:40:00,
2013-01-13 12:45:00,70.5,65.4,29.88,SSE,157,1.0,5.0,84,0.00,,,0.01,Wunderground v.1.15,2013-01-13 18:45:00,
2013-01-13 12:50:00,70.6,65.2,29.88,South,175,2.0,4.0,83,0.00,,,0.01,Wunderground v.1.15,2013-01-13 18:50:00,
2013-01-13 12:55:00,70.7,65.3,29.88,SSE,153,2.0,4.0,83,0.00,,,0.01,Wunderground v.1.15,2013-01-13 18:55:00,
2013-01-13 13:01:00,70.9,65.1,29.86,South,191,1.0,1.0,82,0.00,,,0.01,Wunderground v.1.15,2013-01-13 19:01:00,
2013-01-13 13:05:00,71.2,65.1,29.86,ESE,107,1.0,2.0,81,0.00,,,0.01,Wunderground v.1.15,2013-01-13 19:05:00,
2013-01-13 13:10:00,71.5,65.7,29.86,SSE,168,1.0,4.0,82,0.00,,,0.01,Wunderground v.1.15,2013-01-13 19:10:00,
2013-01-13 13:15:00,71.8,65.3,29.86,NW,325,2.0,4.0,80,0.00,,,0.01,Wunderground v.1.15,2013-01-13 19:15:00,
2013-01-13 13:20:00,71.9,65.0,29.86,SSE,159,2.0,3.0,79,0.00,,,0.01,Wunderground v.1.15,2013-01-13 19:20:00,
2013-01-13 13:25:00,72.0,65.1,29.86,SSE,163,2.0,3.0,79,0.00,,,0.01,Wunderground v.1.15,2013-01-13 19:25:00,
2013-01-13 13:30:00,72.0,65.1,29.86,North,355,2.0,2.0,79,0.00,,,0.01,Wunderground v.1.15,2013-01-13 19:30:00,
2013-01-13 13:40:00,71.9,65.4,29.86,South,186,1.0,2.0,80,0.00,,,0.01,Wunderground v.1.15,2013-01-13 19:40:00,
2013-01-13 13:45:00,71.9,65.0,29.86,South,174,1.0,2.0,79,0.00,,,0.01,Wunderground v.1.15,2013-01-13 19:45:00,
2013-01-13 13:50:00,71.8,64.9,29.86,SSE,152,2.0,2.0,79,0.00,,,0.01,Wunderground v.1.15,2013-01-13 19:50:00,
2013-01-13 13:55:00,71.7,64.8,29.86,SE,132,2.0,2.0,79,0.00,,,0.01,Wunderground v.1.15,2013-01-13 19:55:00,
2013-01-13 14:01:00,71.7,65.2,29.86,SSW,192,1.0,1.0,80,0.00,,,0.01,Wunderground v.1.15,2013-01-13 20:01:00,
2013-01-13 14:05:00,71.6,65.1,29.86,South,170,1.0,1.0,80,0.00,,,0.01,Wunderground v.1.15,2013-01-13 20:05:00,
2013-01-13 14:10:00,71.6,65.5,29.86,South,180,1.0,1.0,81,0.00,,,0.01,Wunderground v.1.15,2013-01-13 20:10:00,
2013-01-13 14:15:00,71.6,65.1,29.85,ESE,123,1.0,1.0,80,0.00,,,0.01,Wunderground v.1.15,2013-01-13 20:15:00,
2013-01-13 14:20:00,71.6,64.7,29.85,SSE,161,1.0,1.0,79,0.00,,,0.01,Wunderground v.1.15,2013-01-13 20:20:00,
2013-01-13 14:25:00,71.7,65.2,29.85,SSE,161,0.0,1.0,80,0.00,,,0.01,Wunderground v.1.15,2013-01-13 20:25:00,
2013-01-13 14:30:00,71.7,65.2,29.84,South,175,1.0,1.0,80,0.00,,,0.01,Wunderground v.1.15,2013-01-13 20:30:00,
2013-01-13 14:35:00,71.8,64.9,29.84,South,188,1.0,2.0,79,0.00,,,0.01,Wunderground v.1.15,2013-01-13 20:35:00,
2013-01-13 14:40:00,71.7,65.2,29.84,SSE,162,2.0,2.0,80,0.00,,,0.01,Wunderground v.1.15,2013-01-13 20:40:00,
2013-01-13 14:45:00,71.7,65.6,29.85,SSE,163,1.0,2.0,81,0.00,,,0.01,Wunderground v.1.15,2013-01-13 20:45:00,
2013-01-13 14:50:00,71.7,65.2,29.85,SSW,209,1.0,1.0,80,0.00,,,0.01,Wunderground v.1.15,2013-01-13 20:50:00,
2013-01-13 15:01:00,71.5,65.4,29.85,WSW,240,0.0,0.0,81,0.00,,,0.01,Wunderground v.1.15,2013-01-13 21:01:00,
2013-01-13 15:05:00,71.5,65.4,29.85,SSE,165,1.0,1.0,81,0.00,,,0.01,Wunderground v.1.15,2013-01-13 21:05:00,
2013-01-13 15:10:00,71.5,65.4,29.85,SW,217,1.0,2.0,81,0.00,,,0.01,Wunderground v.1.15,2013-01-13 21:10:00,
2013-01-13 15:20:00,71.6,65.5,29.85,South,177,1.0,3.0,81,0.00,,,0.01,Wunderground v.1.15,2013-01-13 21:20:00,
2013-01-13 15:25:00,71.6,65.5,29.85,East,90,1.0,3.0,81,0.00,,,0.01,Wunderground v.1.15,2013-01-13 21:25:00,
2013-01-13 15:30:00,71.6,65.5,29.85,SSW,213,1.0,1.0,81,0.00,,,0.01,Wunderground v.1.15,2013-01-13 21:30:00,
2013-01-13 15:35:00,71.6,65.1,29.85,South,173,1.0,1.0,80,0.00,,,0.01,Wunderground v.1.15,2013-01-13 21:35:00,
2013-01-13 15:40:00,71.6,65.1,29.85,SE,128,1.0,1.0,80,0.00,,,0.01,Wunderground v.1.15,2013-01-13 21:40:00,
2013-01-13 15:50:00,71.6,65.1,29.85,SSE,149,1.0,1.0,80,0.00,,,0.01,Wunderground v.1.15,2013-01-13 21:50:00,
2013-01-13 15:55:00,71.6,65.1,29.85,South,173,1.0,2.0,80,0.00,,,0.01,Wunderground v.1.15,2013-01-13 21:55:00,
2013-01-13 16:00:00,71.5,65.0,29.85,East,86,1.0,2.0,80,0.00,,,0.01,Wunderground v.1.15,2013-01-13 22:00:00,
2013-01-13 16:05:00,71.5,65.0,29.85,South,188,1.0,2.0,80,0.00,,,0.01,Wunderground v.1.15,2013-01-13 22:05:00,
2013-01-13 16:10:00,71.5,65.4,29.85,South,179,1.0,3.0,81,0.00,,,0.01,Wunderground v.1.15,2013-01-13 22:10:00,
2013-01-13 16:15:00,71.3,65.9,29.85,South,172,1.0,3.0,83,0.00,,,0.01,Wunderground v.1.15,2013-01-13 22:15:00,
2013-01-13 16:20:00,71.0,65.6,29.85,SSW,212,1.0,5.0,83,0.00,,,0.02,Wunderground v.1.15,2013-01-13 22:20:00,
2013-01-13 16:25:00,70.5,65.4,29.85,South,171,1.0,5.0,84,0.00,,,0.02,Wunderground v.1.15,2013-01-13 22:25:00,
2013-01-13 16:35:00,69.8,65.4,29.85,South,186,1.0,4.0,86,0.00,,,0.02,Wunderground v.1.15,2013-01-13 22:35:00,
2013-01-13 16:40:00,69.6,65.6,29.85,SSE,165,2.0,2.0,87,1.44,,,0.05,Wunderground v.1.15,2013-01-13 22:40:00,
2013-01-13 16:45:00,69.2,65.8,29.86,South,182,1.0,2.0,89,0.91,,,0.12,Wunderground v.1.15,2013-01-13 22:45:00,
2013-01-13 16:55:00,68.4,66.0,29.86,South,184,1.0,1.0,92,0.51,,,0.19,Wunderground v.1.15,2013-01-13 22:55:00,
2013-01-13 17:00:00,68.1,66.0,29.86,South,184,0.0,0.0,93,0.66,,,0.22,Wunderground v.1.15,2013-01-13 23:00:00,
2013-01-13 17:05:00,67.7,65.9,29.86,WSW,242,0.0,1.0,94,0.38,,,0.27,Wunderground v.1.15,2013-01-13 23:05:00,
2013-01-13 17:10:00,67.4,65.6,29.86,WSW,242,0.0,2.0,94,0.37,,,0.29,Wunderground v.1.15,2013-01-13 23:10:00,
2013-01-13 17:15:00,67.2,65.7,29.88,South,176,0.0,2.0,95,0.19,,,0.31,Wunderground v.1.15,2013-01-13 23:15:00,
2013-01-13 17:20:00,67.1,65.6,29.88,SSE,166,1.0,1.0,95,0.55,,,0.36,Wunderground v.1.15,2013-01-13 23:20:00,
2013-01-13 17:30:00,67.0,65.8,29.88,NW,308,1.0,1.0,96,0.10,,,0.39,Wunderground v.1.15,2013-01-13 23:30:00,
2013-01-13 17:35:00,67.0,65.8,29.88,NNW,329,1.0,1.0,96,0.08,,,0.40,Wunderground v.1.15,2013-01-13 23:35:00,
2013-01-13 17:40:00,67.1,65.9,29.88,ESE,115,1.0,1.0,96,0.12,,,0.41,Wunderground v.1.15,2013-01-13 23:40:00,
2013-01-13 17:50:00,67.1,65.9,29.88,South,188,0.0,0.0,96,0.06,,,0.42,Wunderground v.1.15,2013-01-13 23:50:00,
2013-01-13 17:55:00,67.1,65.9,29.88,South,188,0.0,0.0,96,0.04,,,0.42,Wunderground v.1.15,2013-01-13 23:55:00,
2013-01-13 18:01:00,67.0,65.8,29.88,South,175,0.0,3.0,96,0.04,,,0.43,Wunderground v.1.15,2013-01-14 00:01:00,
2013-01-13 18:05:00,67.0,65.8,29.88,SSE,153,0.0,3.0,96,0.12,,,0.44,Wunderground v.1.15,2013-01-14 00:05:00,
2013-01-13 18:10:00,67.0,65.8,29.88,SSE,160,1.0,1.0,96,0.13,,,0.45,Wunderground v.1.15,2013-01-14 00:10:00,
2013-01-13 18:15:00,67.0,65.8,29.88,South,187,1.0,1.0,96,0.16,,,0.47,Wunderground v.1.15,2013-01-14 00:15:00,
2013-01-13 18:20:00,67.0,65.8,29.88,SSW,192,0.0,0.0,96,0.10,,,0.47,Wunderground v.1.15,2013-01-14 00:20:00,
2013-01-13 18:25:00,67.0,65.8,29.88,SSW,193,0.0,2.0,96,0.05,,,0.47,Wunderground v.1.15,2013-01-14 00:25:00,
2013-01-13 18:30:00,67.0,65.8,29.89,WSW,257,1.0,1.0,96,0.04,,,0.48,Wunderground v.1.15,2013-01-14 00:30:00,
2013-01-13 18:35:00,67.0,65.8,29.89,WSW,257,1.0,1.0,96,0.13,,,0.49,Wunderground v.1.15,2013-01-14 00:35:00,
2013-01-13 18:45:00,66.9,65.7,29.89,WSW,257,0.0,0.0,96,0.38,,,0.57,Wunderground v.1.15,2013-01-14 00:45:00,
2013-01-13 18:50:00,66.8,65.6,29.89,WSW,257,0.0,0.0,96,1.07,,,0.61,Wunderground v.1.15,2013-01-14 00:50:00,
2013-01-13 18:55:00,66.7,65.8,29.89,WSW,258,0.0,2.0,97,2.97,,,0.73,Wunderground v.1.15,2013-01-14 00:55:00,
2013-01-13 19:01:00,66.6,65.7,29.90,WSW,258,0.0,0.0,97,0.85,,,0.80,Wunderground v.1.15,2013-01-14 01:01:00,
2013-01-13 19:05:00,66.5,65.6,29.90,WSW,258,0.0,0.0,97,1.00,,,0.87,Wunderground v.1.15,2013-01-14 01:05:00,
2013-01-13 19:15:00,66.2,65.3,29.90,WNW,290,1.0,3.0,97,1.10,,,1.03,Wunderground v.1.15,2013-01-14 01:15:00,
2013-01-13 19:20:00,65.8,64.3,29.90,WNW,290,1.0,1.0,95,0.52,,,1.11,Wunderground v.1.15,2013-01-14 01:20:00,
2013-01-13 19:25:00,65.4,63.9,29.90,WNW,285,1.0,2.0,95,0.31,,,1.14,Wunderground v.1.15,2013-01-14 01:25:00,
2013-01-13 19:30:00,64.9,63.1,29.92,WNW,284,1.0,1.0,94,0.45,,,1.17,Wunderground v.1.15,2013-01-14 01:30:00,
2013-01-13 19:40:00,64.0,62.5,29.92,WNW,284,0.0,2.0,95,0.17,,,1.22,Wunderground v.1.15,2013-01-14 01:40:00,
2013-01-13 19:45:00,63.6,62.1,29.94,WNW,292,1.0,2.0,95,0.13,,,1.24,Wunderground v.1.15,2013-01-14 01:45:00,
2013-01-13 19:55:00,63.0,61.5,29.94,WNW,292,0.0,1.0,95,0.17,,,1.28,Wunderground v.1.15,2013-01-14 01:55:00,
2013-01-13 20:01:00,62.6,60.8,29.94,WNW,292,0.0,0.0,94,0.19,,,1.29,Wunderground v.1.15,2013-01-14 02:01:00,
2013-01-13 20:05:00,62.2,60.5,29.94,WNW,295,1.0,1.0,94,0.18,,,1.31,Wunderground v.1.15,2013-01-14 02:05:00,
2013-01-13 20:15:00,61.4,59.7,29.94,West,278,1.0,1.0,94,0.10,,,1.32,Wunderground v.1.15,2013-01-14 02:15:00,
2013-01-13 20:20:00,61.1,59.7,29.94,West,278,0.0,0.0,95,0.08,,,1.33,Wunderground v.1.15,2013-01-14 02:20:00,
2013-01-13 20:25:00,60.9,59.5,29.94,West,278,0.0,0.0,95,0.08,,,1.33,Wunderground v.1.15,2013-01-14 02:25:00,
2013-01-13 20:35:00,60.4,59.0,29.94,West,278,0.0,0.0,95,0.00,,,1.33,Wunderground v.1.15,2013-01-14 02:35:00,
2013-01-13 20:45:00,60.1,58.7,29.94,West,278,0.0,0.0,95,0.00,,,1.34,Wunderground v.1.15,2013-01-14 02:45:00,
2013-01-13 20:50:00,60.0,58.6,29.94,West,278,0.0,0.0,95,0.00,,,1.34,Wunderground v.1.15,2013-01-14 02:50:00,
2013-01-13 20:55:00,59.8,58.7,29.94,West,278,0.0,0.0,96,0.00,,,1.34,Wunderground v.1.15,2013-01-14 02:55:00,
2013-01-13 21:01:00,59.7,58.6,29.95,West,279,0.0,0.0,96,0.04,,,1.35,Wunderground v.1.15,2013-01-14 03:01:00,
2013-01-13 21:05:00,59.6,58.5,29.95,West,278,0.0,0.0,96,0.04,,,1.35,Wunderground v.1.15,2013-01-14 03:05:00,
2013-01-13 21:20:00,59.3,58.2,29.96,West,278,0.0,0.0,96,0.00,,,1.36,Wunderground v.1.15,2013-01-14 03:20:00,
2013-01-13 21:25:00,58.9,57.2,29.96,WNW,283,0.0,0.0,94,0.00,,,1.36,Wunderground v.1.15,2013-01-14 03:25:00,
2013-01-13 21:30:00,58.6,56.9,29.96,WNW,283,0.0,0.0,94,0.00,,,1.36,Wunderground v.1.15,2013-01-14 03:30:00,
2013-01-13 21:35:00,58.2,56.5,29.96,WNW,283,0.0,0.0,94,0.00,,,1.36,Wunderground v.1.15,2013-01-14 03:35:00,
2013-01-13 21:41:00,57.8,56.1,29.96,WNW,283,0.0,0.0,94,0.00,,,1.36,Wunderground v.1.15,2013-01-14 03:41:00,
2013-01-13 21:45:00,57.4,55.7,29.96,WNW,283,0.0,0.0,94,0.00,,,1.36,Wunderground v.1.15,2013-01-14 03:45:00,
2013-01-13 21:50:00,56.9,54.9,29.96,WNW,283,0.0,0.0,93,0.00,,,1.36,Wunderground v.1.15,2013-01-14 03:50:00,
2013-01-13 21:55:00,56.6,54.9,29.96,WNW,283,0.0,0.0,94,0.00,,,1.37,Wunderground v.1.15,2013-01-14 03:55:00,
2013-01-13 22:00:00,56.3,54.6,29.98,WNW,283,0.0,0.0,94,0.00,,,1.37,Wunderground v.1.15,2013-01-14 04:00:00,
2013-01-13 22:15:00,55.8,54.4,29.98,WNW,283,0.0,0.0,95,0.00,,,1.37,Wunderground v.1.15,2013-01-14 04:15:00,
2013-01-13 22:20:00,55.5,54.1,29.98,WNW,282,0.0,0.0,95,0.00,,,1.37,Wunderground v.1.15,2013-01-14 04:20:00,
2013-01-13 22:25:00,55.3,53.9,29.98,WNW,282,1.0,1.0,95,0.00,,,1.38,Wunderground v.1.15,2013-01-14 04:25:00,
2013-01-13 22:31:00,55.0,53.6,29.99,WNW,282,0.0,1.0,95,0.08,,,1.39,Wunderground v.1.15,2013-01-14 04:31:00,
2013-01-13 22:40:00,54.4,52.7,29.99,WNW,282,0.0,1.0,94,0.06,,,1.39,Wunderground v.1.15,2013-01-14 04:40:00,
2013-01-13 22:46:00,54.2,52.8,30.00,WNW,282,0.0,0.0,95,0.04,,,1.39,Wunderground v.1.15,2013-01-14 04:46:00,
2013-01-13 22:50:00,54.0,52.3,30.00,WNW,282,0.0,0.0,94,0.00,,,1.40,Wunderground v.1.15,2013-01-14 04:50:00,
2013-01-13 22:55:00,53.8,52.4,30.00,WNW,282,0.0,0.0,95,0.00,,,1.40,Wunderground v.1.15,2013-01-14 04:55:00,
2013-01-13 23:01:00,53.6,52.2,30.02,WNW,282,0.0,0.0,95,0.08,,,1.41,Wunderground v.1.15,2013-01-14 05:01:00,
2013-01-13 23:10:00,53.0,51.3,30.02,WNW,282,0.0,0.0,94,0.04,,,1.41,Wunderground v.1.15,2013-01-14 05:10:00,
2013-01-13 23:15:00,52.7,51.0,30.01,WNW,282,0.0,2.0,94,0.00,,,1.41,Wunderground v.1.15,2013-01-14 05:15:00,
2013-01-13 23:20:00,52.3,50.3,30.01,WNW,282,1.0,1.0,93,0.00,,,1.41,Wunderground v.1.15,2013-01-14 05:20:00,
2013-01-13 23:26:00,52.0,50.3,30.01,WNW,282,1.0,1.0,94,0.00,,,1.41,Wunderground v.1.15,2013-01-14 05:26:00,
2013-01-13 23:30:00,51.7,50.0,30.02,WNW,282,0.0,0.0,94,0.00,,,1.41,Wunderground v.1.15,2013-01-14 05:30:00,
2013-01-13 23:35:00,51.4,49.7,30.02,WNW,282,0.0,1.0,94,0.00,,,1.42,Wunderground v.1.15,2013-01-14 05:35:00,
2013-01-13 23:41:00,51.1,49.7,30.02,WNW,282,0.0,0.0,95,0.00,,,1.42,Wunderground v.1.15,2013-01-14 05:41:00,
2013-01-13 23:46:00,50.9,49.5,30.02,WNW,282,0.0,0.0,95,0.00,,,1.42,Wunderground v.1.15,2013-01-14 05:46:00,
2013-01-13 23:50:00,50.7,49.3,30.02,WNW,282,0.0,2.0,95,0.00,,,1.42,Wunderground v.1.15,2013-01-14 05:50:00,